| time (UTC) | temp F | wind direction | speed MPH | gust MPH | rain 1hr in | rain 24hr in | rain mn in | humidity % | barometer mb |
| 20260506001503 | 77 | 307 | 9.0 | 10.0 | 0.00 | 0.00 | 0.00 | 64 | 1009.1 |
| 20260506000514 | 78 | 305 | 6.0 | 9.0 | 0.00 | 0.00 | 0.00 | 63 | 1008.7 |
| 20260505235503 | 79 | 301 | 7.0 | 9.0 | 0.00 | 0.00 | 0.00 | 62 | 1008.5 |
| 20260505234514 | 80 | 321 | 9.0 | 11.0 | 0.00 | 0.00 | 0.00 | 60 | 1008.6 |
| 20260505233503 | 82 | 355 | 6.0 | 8.0 | 0.00 | 0.00 | 0.00 | 59 | 1008.4 |
| 20260505232455 | 84 | 238 | 5.0 | 8.0 | 0.00 | 0.00 | 0.00 | 53 | 1008.3 |
| 20260505231503 | 84 | 326 | 3.0 | 5.0 | 0.00 | 0.00 | 0.00 | 50 | 1007.9 |
| 20260505230455 | 84 | 55 | 2.0 | 3.0 | 0.00 | 0.00 | 0.00 | 50 | 1007.7 |
| 20260505225503 | 86 | 287 | 5.0 | 8.0 | 0.00 | 0.00 | 0.00 | 49 | 1007.6 |
| 20260505224455 | 89 | 183 | 3.0 | 5.0 | 0.00 | 0.00 | 0.00 | 54 | 1007.5 |
| 20260505223502 | 90 | 189 | 8.0 | 10.0 | 0.00 | 0.00 | 0.00 | 52 | 1007.3 |
| 20260505222515 | 91 | 127 | 3.0 | 6.0 | 0.00 | 0.00 | 0.00 | 51 | 1006.9 |
| 20260505221523 | 89 | 131 | 2.0 | 3.0 | 0.00 | 0.00 | 0.00 | 54 | 1006.9 |
| 20260505220454 | 89 | 145 | 3.0 | 6.0 | 0.00 | 0.00 | 0.00 | 54 | 1007.2 |
| 20260505215503 | 90 | 193 | 4.0 | 6.0 | 0.00 | 0.00 | 0.00 | 50 | 1007.2 |
| 20260505214455 | 91 | 153 | 3.0 | 5.0 | 0.00 | 0.00 | 0.00 | 52 | 1007.3 |
| 20260505213523 | 89 | 173 | 5.0 | 6.0 | 0.00 | 0.00 | 0.00 | 55 | 1007.4 |
| 20260505212455 | 89 | 170 | 4.0 | 8.0 | 0.00 | 0.00 | 0.00 | 54 | 1007.6 |
| 20260505211503 | 88 | 171 | 5.0 | 7.0 | 0.00 | 0.00 | 0.00 | 56 | 1007.6 |
| 20260505210455 | 88 | 137 | 2.0 | 3.0 | 0.00 | 0.00 | 0.00 | 57 | 1007.9 |
| 20260505205523 | 89 | 189 | 7.0 | 10.0 | 0.00 | 0.00 | 0.00 | 55 | 1007.7 |
| 20260505204455 | 89 | 0.0 | 0.0 | 0.00 | 0.00 | 0.00 | 56 | 1007.8 | |
| 20260505203503 | 88 | 231 | 11.0 | 11.0 | 0.00 | 0.00 | 0.00 | 56 | 1008.0 |
| 20260505202456 | 88 | 200 | 7.0 | 9.0 | 0.00 | 0.00 | 0.00 | 56 | 1007.9 |
| 20260505201433 | 88 | 211 | 9.0 | 10.0 | 0.00 | 0.00 | 0.00 | 57 | 1008.0 |
| 20260505200433 | 88 | 207 | 6.0 | 8.0 | 0.00 | 0.00 | 0.00 | 55 | 1008.2 |
| 20260505195507 | 87 | 173 | 14.0 | 18.0 | 0.00 | 0.00 | 0.00 | 56 | 1008.2 |
| 20260505194433 | 87 | 165 | 8.0 | 10.0 | 0.00 | 0.00 | 0.00 | 58 | 1008.2 |
| 20260505193433 | 87 | 164 | 10.0 | 15.0 | 0.00 | 0.00 | 0.00 | 58 | 1008.2 |
| 20260505192433 | 85 | 184 | 9.0 | 13.0 | 0.00 | 0.00 | 0.00 | 60 | 1008.4 |
| 20260505191433 | 87 | 181 | 9.0 | 15.0 | 0.00 | 0.00 | 0.00 | 59 | 1008.2 |
| 20260505190433 | 85 | 168 | 5.0 | 8.0 | 0.00 | 0.00 | 0.00 | 62 | 1008.4 |
| 20260505185453 | 84 | 185 | 4.0 | 7.0 | 0.00 | 0.00 | 0.00 | 63 | 1008.4 |
| 20260505184433 | 84 | 179 | 9.0 | 14.0 | 0.00 | 0.00 | 0.00 | 62 | 1008.4 |
| 20260505183433 | 83 | 138 | 5.0 | 7.0 | 0.00 | 0.00 | 0.00 | 64 | 1008.4 |
| 20260505182434 | 83 | 284 | 11.0 | 15.0 | 0.00 | 0.00 | 0.00 | 63 | 1008.4 |
| 20260505181433 | 84 | 200 | 7.0 | 9.0 | 0.00 | 0.00 | 0.00 | 63 | 1008.7 |
| 20260505180434 | 84 | 142 | 8.0 | 9.0 | 0.00 | 0.00 | 0.00 | 62 | 1008.5 |
| 20260505175453 | 83 | 131 | 7.0 | 8.0 | 0.00 | 0.00 | 0.00 | 64 | 1008.6 |
| 20260505174433 | 82 | 166 | 8.0 | 11.0 | 0.00 | 0.00 | 0.00 | 66 | 1008.5 |
| 20260505173433 | 82 | 149 | 7.0 | 10.0 | 0.00 | 0.00 | 0.00 | 66 | 1008.5 |
| 20260505172433 | 82 | 125 | 7.0 | 11.0 | 0.00 | 0.00 | 0.00 | 65 | 1008.6 |
| 20260505171433 | 81 | 131 | 7.0 | 9.0 | 0.00 | 0.00 | 0.00 | 66 | 1008.5 |
| 20260505170433 | 81 | 133 | 7.0 | 9.0 | 0.00 | 0.00 | 0.00 | 66 | 1008.7 |
| 20260505165513 | 81 | 142 | 3.0 | 6.0 | 0.00 | 0.00 | 0.00 | 67 | 1008.6 |
| 20260505164433 | 81 | 191 | 9.0 | 14.0 | 0.00 | 0.00 | 0.00 | 66 | 1008.8 |
| 20260505163433 | 80 | 117 | 5.0 | 7.0 | 0.00 | 0.00 | 0.00 | 68 | 1008.7 |
| 20260505162434 | 80 | 211 | 8.0 | 11.0 | 0.00 | 0.00 | 0.00 | 67 | 1008.7 |
| 20260505161453 | 80 | 146 | 8.0 | 10.0 | 0.00 | 0.00 | 0.00 | 68 | 1008.5 |
| 20260505160433 | 79 | 179 | 8.0 | 10.0 | 0.00 | 0.00 | 0.00 | 69 | 1008.5 |
| 20260505152433 | 78 | 205 | 10.0 | 16.0 | 0.00 | 0.00 | 0.00 | 72 | 1008.3 |
| 20260505151433 | 77 | 234 | 8.0 | 11.0 | 0.00 | 0.00 | 0.00 | 74 | 1008.6 |
| 20260505150434 | 77 | 122 | 8.0 | 13.0 | 0.00 | 0.00 | 0.00 | 73 | 1008.6 |
| 20260505140434 | 74 | 184 | 4.0 | 8.0 | 0.00 | 0.00 | 0.00 | 79 | 1008.6 |
| 20260505124433 | 72 | 136 | 7.0 | 9.0 | 0.00 | 0.00 | 0.00 | 81 | 1008.3 |
| 20260505123433 | 72 | 128 | 5.0 | 8.0 | 0.00 | 0.00 | 0.00 | 81 | 1007.9 |
| 20260505122434 | 72 | 132 | 9.0 | 13.0 | 0.00 | 0.00 | 0.00 | 81 | 1007.9 |
| 20260505121453 | 72 | 209 | 5.0 | 6.0 | 0.00 | 0.00 | 0.00 | 81 | 1007.8 |
| 20260505120433 | 72 | 165 | 8.0 | 11.0 | 0.00 | 0.00 | 0.00 | 81 | 1007.7 |
| 20260505115434 | 72 | 112 | 6.0 | 9.0 | 0.00 | 0.00 | 0.00 | 81 | 1007.8 |
| 20260505114433 | 72 | 142 | 4.0 | 7.0 | 0.00 | 0.00 | 0.00 | 81 | 1007.6 |
| 20260505113434 | 71 | 113 | 5.0 | 10.0 | 0.00 | 0.00 | 0.00 | 82 | 1007.4 |
| 20260505112433 | 71 | 132 | 6.0 | 7.0 | 0.00 | 0.00 | 0.00 | 82 | 1007.5 |
| 20260505111434 | 71 | 145 | 6.0 | 9.0 | 0.00 | 0.00 | 0.00 | 82 | 1007.4 |
| 20260505110433 | 71 | 135 | 4.0 | 7.0 | 0.00 | 0.00 | 0.00 | 82 | 1007.3 |
| 20260505101434 | 72 | 185 | 6.0 | 9.0 | 0.00 | 0.00 | 0.00 | 80 | 1007.6 |
| 20260505100454 | 72 | 129 | 8.0 | 13.0 | 0.00 | 0.00 | 0.00 | 80 | 1007.5 |
| 20260505095433 | 72 | 168 | 9.0 | 14.0 | 0.00 | 0.00 | 0.00 | 81 | 1007.5 |
| 20260505094434 | 71 | 202 | 9.0 | 14.0 | 0.00 | 0.00 | 0.00 | 81 | 1007.8 |
| 20260505093453 | 71 | 231 | 11.0 | 16.0 | 0.00 | 0.00 | 0.00 | 81 | 1007.7 |
| 20260505092433 | 71 | 170 | 9.0 | 11.0 | 0.00 | 0.00 | 0.00 | 81 | 1007.8 |
| 20260505091433 | 71 | 130 | 5.0 | 7.0 | 0.00 | 0.00 | 0.00 | 82 | 1007.8 |
| 20260505090433 | 71 | 38 | 11.0 | 15.0 | 0.00 | 0.00 | 0.00 | 82 | 1007.7 |
| 20260505085433 | 71 | 177 | 8.0 | 10.0 | 0.00 | 0.00 | 0.00 | 82 | 1007.5 |
| 20260505084434 | 71 | 96 | 10.0 | 13.0 | 0.00 | 0.00 | 0.00 | 82 | 1007.7 |
| 20260505083454 | 71 | 166 | 6.0 | 11.0 | 0.00 | 0.00 | 0.00 | 82 | 1007.9 |
| 20260505082408 | 71 | 169 | 6.0 | 10.0 | 0.00 | 0.00 | 0.00 | 81 | 1007.8 |
| 20260505081416 | 71 | 115 | 8.0 | 10.0 | 0.00 | 0.00 | 0.00 | 81 | 1007.8 |
| 20260505080408 | 71 | 187 | 6.0 | 10.0 | 0.00 | 0.00 | 0.00 | 80 | 1008.0 |
| 20260505075416 | 71 | 91 | 12.0 | 21.0 | 0.00 | 0.00 | 0.00 | 80 | 1008.0 |
| 20260505074408 | 72 | 345 | 6.0 | 9.0 | 0.00 | 0.00 | 0.00 | 79 | 1008.2 |
| 20260505073417 | 72 | 134 | 16.0 | 18.0 | 0.00 | 0.00 | 0.00 | 79 | 1008.2 |
| 20260505072409 | 72 | 185 | 3.0 | 6.0 | 0.00 | 0.00 | 0.00 | 78 | 1008.5 |
| 20260505071416 | 72 | 205 | 8.0 | 11.0 | 0.00 | 0.00 | 0.00 | 78 | 1008.6 |
| 20260505070334 | 72 | 160 | 12.0 | 16.0 | 0.00 | 0.00 | 0.00 | 77 | 1008.9 |
| 20260505065334 | 72 | 121 | 7.0 | 10.0 | 0.00 | 0.00 | 0.00 | 77 | 1009.0 |
| 20260505064334 | 72 | 93 | 8.0 | 11.0 | 0.00 | 0.00 | 0.00 | 76 | 1009.0 |
| 20260505063334 | 72 | 91 | 5.0 | 7.0 | 0.00 | 0.00 | 0.00 | 76 | 1009.1 |
| 20260505062354 | 73 | 93 | 4.0 | 8.0 | 0.00 | 0.00 | 0.00 | 76 | 1009.2 |
| 20260505061312 | 73 | 153 | 5.0 | 6.0 | 0.00 | 0.00 | 0.00 | 75 | 1009.0 |
| 20260505060305 | 73 | 64 | 7.0 | 9.0 | 0.00 | 0.00 | 0.00 | 74 | 1009.0 |
| 20260505055312 | 73 | 250 | 7.0 | 9.0 | 0.00 | 0.00 | 0.00 | 74 | 1009.3 |
| 20260505054325 | 73 | 126 | 7.0 | 10.0 | 0.00 | 0.00 | 0.00 | 73 | 1009.3 |
| 20260505053332 | 73 | 211 | 4.0 | 6.0 | 0.00 | 0.00 | 0.00 | 73 | 1009.3 |
| 20260505052304 | 73 | 92 | 5.0 | 6.0 | 0.00 | 0.00 | 0.00 | 73 | 1009.7 |
| 20260505051312 | 73 | 124 | 8.0 | 10.0 | 0.00 | 0.00 | 0.00 | 72 | 1009.7 |
| 20260505050304 | 73 | 133 | 5.0 | 8.0 | 0.00 | 0.00 | 0.00 | 72 | 1009.4 |
| 20260505041313 | 73 | 144 | 5.0 | 8.0 | 0.00 | 0.00 | 0.00 | 70 | 1009.5 |
| 20260505040324 | 74 | 230 | 5.0 | 7.0 | 0.00 | 0.00 | 0.00 | 70 | 1009.9 |
| 20260505035312 | 74 | 172 | 4.0 | 6.0 | 0.00 | 0.00 | 0.00 | 70 | 1009.6 |
| 20260505034304 | 74 | 132 | 7.0 | 11.0 | 0.00 | 0.00 | 0.00 | 69 | 1009.6 |
| 20260505033312 | 74 | 160 | 6.0 | 8.0 | 0.00 | 0.00 | 0.00 | 69 | 1009.8 |
| 20260505032305 | 74 | 123 | 5.0 | 6.0 | 0.00 | 0.00 | 0.00 | 69 | 1009.9 |
| 20260505031313 | 74 | 100 | 4.0 | 6.0 | 0.00 | 0.00 | 0.00 | 68 | 1009.8 |
| 20260505030305 | 74 | 148 | 3.0 | 6.0 | 0.00 | 0.00 | 0.00 | 68 | 1009.8 |
| 20260505025333 | 74 | 110 | 5.0 | 7.0 | 0.00 | 0.00 | 0.00 | 68 | 1010.0 |
| 20260505024305 | 75 | 113 | 7.0 | 10.0 | 0.00 | 0.00 | 0.00 | 67 | 1009.8 |
| 20260505023313 | 75 | 136 | 5.0 | 7.0 | 0.00 | 0.00 | 0.00 | 67 | 1009.8 |
| 20260505022305 | 75 | 165 | 5.0 | 9.0 | 0.00 | 0.00 | 0.00 | 66 | 1009.9 |
| 20260505021333 | 75 | 138 | 5.0 | 7.0 | 0.00 | 0.00 | 0.00 | 66 | 1009.8 |
| 20260505020304 | 76 | 186 | 7.0 | 9.0 | 0.00 | 0.00 | 0.00 | 65 | 1009.5 |
| 20260505015312 | 76 | 165 | 7.0 | 8.0 | 0.00 | 0.00 | 0.00 | 65 | 1009.7 |
| 20260505014305 | 76 | 200 | 8.0 | 10.0 | 0.00 | 0.00 | 0.00 | 64 | 1009.5 |
| 20260505013312 | 76 | 358 | 6.0 | 8.0 | 0.00 | 0.00 | 0.00 | 63 | 1009.8 |
| 20260505012324 | 76 | 138 | 7.0 | 9.0 | 0.00 | 0.00 | 0.00 | 63 | 1009.7 |
| 20260505011313 | 76 | 174 | 5.0 | 6.0 | 0.00 | 0.00 | 0.00 | 63 | 1009.7 |
| 20260505010325 | 77 | 139 | 8.0 | 10.0 | 0.00 | 0.00 | 0.00 | 62 | 1009.6 |
| 20260505005313 | 77 | 96 | 8.0 | 13.0 | 0.00 | 0.00 | 0.00 | 62 | 1009.6 |
| 20260505004305 | 77 | 88 | 5.0 | 7.0 | 0.00 | 0.00 | 0.00 | 61 | 1009.5 |
| 20260505003313 | 77 | 135 | 5.0 | 6.0 | 0.00 | 0.00 | 0.00 | 61 | 1009.7 |
| 20260505002305 | 78 | 144 | 8.0 | 11.0 | 0.00 | 0.00 | 0.00 | 60 | 1009.8 |